SCP
0 0 0 0 0 0 0 0 0 0 0 0 0 0 0 0 0 0 0 0 0 0 0 0 0 0 0 0 0 0 1 0 0 0 0 0 0 0 0 0 0 0 -0
0 0 0 0 0 0 0 0 0 0 0 0 0 0 0 0 0 0 0 0 0 0 0 0 0 0 0 0 0 0 0 0 0 0 0 0 0 0 0 0 0 0 0
0 0 0 0 0 0 0 0 0 0 0 0 0 0 0 0 0 0 0 0 0 0 0 0 0 0 0 0 0 0 0 0 0 0 0 0 0 0 0 0 0 -0 0
0 0 0 0 0 0 0 0 0 0 0 0 0 0 0 0 0 0 0 0 0 0 0 0 0 0 0 0 0 0 0 0 0 0 0 0 0 0 0 0 0 0 -0
0 0 0 0 0 0 0 0 0 0 0 0 0 0 0 0 0 0 0 0 0 0 0 0 0 0 0 0 0 0 0 0 0 0 0 0 0 0 0 0 0 0 -0
0 0 0 0 0 0 0 0 0 0 0 0 0 0 0 0 0 0 0 0 0 0 0 0 0 0 0 0 0 0 0 0 0 0 0 0 0 0 0 0 0 0 0
0 0 0 0 0 0 0 0 0 0 0 0 0 0 0 0 0 0 0 0 0 0 0 0 0 0 0 0 0 0 0 0 0 0 0 0 0 0 0 -0 -0 0 0
0 0 0 0 0 0 0 0 0 0 0 0 0 0 0 0 0 0 0 0 0 0 0 0 0 0 0 0 0 0 0 0 0 0 0 0 0 0 0 -0 -0 0 0
0 0 0 0 0 0 0 0 0 0 0 0 0 0 0 0 0 0 0 0 0 0 0 0 0 0 0 0 0 0 0 0 0 0 0 0 0 0 0 -0 0 0 0
0 0 0 0 0 0 0 0 0 0 0 0 0 0 0 0 0 0 0 0 0 0 0 0 0 0 0 0 0 0 0 0 0 0 0 0 0 0 0 0 0 0 0
0 0 0 0 0 0 0 0 0 0 0 0 0 0 0 0 0 0 0 0 0 0 0 0 0 0 0 0 0 0 0 0 0 0 0 0 0 -0 0 0 0 0 0
0 0 0 0 0 0 0 0 0 0 0 0 0 0 0 0 0 0 0 0 0 0 0 0 0 0 0 0 0 0 0 0 0 0 0 -0 -0 -0 -0 0 -0 -0 0
0 0 0 0 0 0 0 0 0 0 0 0 0 0 -0 0 0 0 0 0 0 0 0 0 0 0 0 0 0 0 0 0 0 0 0 0 -0 -0 -0 -0 -0 -0 0
0 0 0 0 0 0 0 0 0 0 0 0 0 -0 -0 -0 0 0 0 0 0 0 0 0 0 0 0 0 0 0 0 0 0 0 0 0 0 0 -0 -0 0 0 0
0 0 0 0 0 0 0 0 0 0 0 0 -0 0 0 -0 -0 -0 0 0 0 0 0 0 0 0 0 0 0 0 0 0 0 0 0 -0 -0 0 -0 0 0 0 0
0 0 0 0 0 0 0 0 0 0 0 0 0 0 0 -0 -0 -0 -0 0 0 0 0 0 0 0 0 0 0 0 0 0 -0 -0 -0 -0 -0 -0 -0 -0 0 0 0
0 -0 0 0 0 0 0 0 0 0 0 0 0 0 0 -0 -0 0 0 0 0 0 0 0 0 0 0 0 0 0 0 0 0 -0 -0 -0 -0 -0 0 -0 0 0 0
-0 -0 0 0 0 0 0 0 0 0 0 0 0 -0 0 0 0 0 0 0 0 0 0 0 0 0 0 0 0 0 0 0 0 -0 -0 -0 0 -0 0 0 0 0 0
-0 0 0 0 0 0 0 0 0 -0 0 0 0 0 0 0 0 0 0 0 0 0 0 0 0 0 0 0 0 0 0 0 0 -0 0 0 -0 -0 0 0 0 -0 -0
-0 0 -0 0 0 0 -0 0 0 0 -0 -0 -0 0 0 0 0 0 0 0 0 0 0 0 0 0 0 0 0 0 0 0 0 0 0 -0 -0 -0 0 -0 -0 -0 -0
0 -0 -0 -0 -0 0 0 0 0 0 0 0 -0 -0 0 -0 0 0 0 0 0 0 0 0 0 0 0 0 0 0 0 0 0 0 0 0 0 0 0 0 -0 0 -0
0 0 -0 -0 -0 -0 -0 0 0 0 0 0 0 0 0 0 0 0 0 0 0 0 0 0 0 0 0 0 0 0 0 0 0 0 0 0 0 0 -0 0 -0 -0 -0
0 0 0 -0 -0 -0 0 0 -0 0 0 0 0 0 0 0 0 0 0 0 0 0 0 0 0 0 0 0 0 0 0 0 0 0 0 0 0 0 0 0 0 -0 -0
0 0 0 0 0 -0 0 -0 0 0 0 0 0 0 0 0 0 0 0 0 0 0 0 0 0 0 0 0 0 0 0 0 0 0 0 0 0 0 0 0 0 -0 -0
0 0 0 0 0 0 -0 -0 -0 0 0 0 0 0 0 0 0 0 0 0 0 0 0 0 0 0 0 0 0 0 0 0 0 0 0 0 0 0 0 -0 -0 -0 -0
0 0 0 0 0 0 0 -0 -0 0 0 0 0 0 -0 -0 0 0 0 0 0 0 0 0 0 0 0 0 0 0 0 0 0 0 0 0 0 0 -0 0 0 0 0
Wind_Speed_500mb
77 66 56 48 42 38 39 32 30 29 31 29 29 26 27 27 26 25 21 20 19 30 35 38 37 38 32 30 27 27 37 39 46 49 43 40 34 30 33 37 35 36 35
76 65 59 53 45 43 39 34 33 33 33 35 35 31 29 33 36 35 32 30 26 29 37 33 39 37 34 29 27 28 38 42 43 43 41 37 35 29 30 33 33 34 29
68 63 62 52 45 41 40 38 37 37 38 39 42 38 35 36 39 36 32 34 33 30 31 33 32 36 35 28 28 30 39 43 39 41 36 40 37 28 29 30 31 31 28
46 56 53 47 39 36 41 42 41 39 41 43 46 45 45 41 42 40 35 28 28 28 27 31 33 32 31 32 30 31 39 45 47 43 35 35 34 30 30 31 31 31 30
45 53 47 41 33 35 39 41 39 41 44 46 50 48 47 47 44 42 37 32 30 31 29 23 29 27 28 33 35 32 38 42 46 44 35 36 37 33 32 30 32 35 38
44 48 34 34 36 33 34 36 40 41 43 43 44 44 38 44 42 42 38 32 29 32 34 27 26 22 13 25 33 33 37 40 43 46 42 37 36 39 33 31 34 42 47
38 33 28 38 36 29 27 31 37 43 46 40 39 40 36 41 41 40 36 33 29 35 37 36 27 21 18 19 30 32 35 38 42 48 45 43 36 34 34 36 41 48 48
30 34 30 33 31 30 33 35 39 45 45 37 34 36 28 35 39 43 40 33 30 33 39 41 37 27 20 19 27 33 35 37 41 50 47 43 40 39 36 42 47 33 34
20 22 24 26 28 36 35 37 40 39 37 31 30 27 11 14 16 36 42 37 35 35 38 32 36 36 27 18 23 31 36 38 40 46 47 42 40 36 37 53 43 36 36
21 23 23 28 33 37 36 38 30 29 27 27 25 31 27 6 12 7 23 37 35 33 34 32 33 32 34 26 26 28 34 37 38 43 49 45 43 41 49 43 39 34 30
27 31 32 33 32 34 36 29 25 22 21 24 29 28 36 35 28 17 8 18 37 37 37 35 33 30 31 28 28 21 34 36 37 42 48 43 48 46 52 37 40 39 38
32 30 33 33 35 30 22 19 18 18 20 23 26 30 33 34 35 35 27 10 29 35 32 30 30 31 33 29 35 27 33 38 39 44 51 45 53 52 52 50 47 45 39
32 32 32 32 24 18 16 13 9 10 13 14 19 24 28 32 28 28 33 14 28 30 29 30 31 30 33 31 31 27 34 38 37 46 50 47 50 55 56 54 51 46 39
24 25 22 15 15 16 15 10 10 11 12 12 15 17 21 24 31 24 29 32 25 31 35 33 36 34 34 32 32 31 38 39 37 45 52 47 55 65 45 57 52 42 35
16 16 12 11 10 10 10 13 18 18 13 16 17 17 20 23 30 32 31 26 39 32 31 29 24 24 25 32 32 36 35 41 39 50 48 72 70 52 58 54 47 35 32
13 13 10 8 7 8 11 13 19 12 12 14 13 15 20 23 28 30 28 24 33 40 33 36 28 26 25 31 34 37 36 36 38 59 49 56 54 56 60 51 39 30 34
16 15 9 4 2 6 12 12 16 15 12 13 12 11 15 21 26 27 28 29 37 37 30 30 24 17 24 35 36 33 42 44 56 46 43 53 69 67 55 44 38 32 30
18 14 6 4 6 13 15 14 16 17 18 16 12 19 17 18 21 25 31 33 36 35 29 27 31 25 36 30 39 45 51 53 50 41 46 63 47 49 50 42 38 32 25
16 8 3 6 13 13 7 6 15 22 25 27 22 15 17 19 21 22 20 25 32 34 30 34 35 35 45 58 54 55 65 67 50 60 53 56 51 46 41 40 33 28 24
10 3 2 7 9 7 4 9 12 14 17 25 20 13 16 18 20 27 26 29 37 36 39 45 46 59 53 51 50 68 80 64 68 63 62 59 56 47 41 35 26 22 21
12 7 2 6 11 8 9 9 6 5 6 8 14 12 18 22 16 17 18 29 41 50 56 55 60 71 73 72 65 76 78 81 72 65 60 48 42 38 41 37 30 22 15
12 7 1 5 11 12 9 8 9 11 9 13 14 14 15 18 22 19 28 42 48 56 61 59 63 66 76 75 82 93 93 85 79 59 55 52 41 38 33 26 19 14 12
16 11 2 3 9 10 10 8 15 13 14 17 13 12 10 7 15 29 38 33 33 41 52 56 61 74 88 86 94 90 79 71 71 64 55 50 42 31 26 22 20 19 17
16 13 4 1 5 8 9 9 14 18 21 19 13 12 14 19 21 28 26 31 43 51 55 53 58 68 71 90 82 80 75 68 58 58 47 46 39 32 26 23 21 19 15
19 13 5 1 2 6 7 9 12 18 22 21 20 21 27 31 25 28 42 51 60 63 52 52 60 62 74 83 71 69 67 63 64 55 46 30 35 31 26 23 21 20 16
20 15 10 5 4 2 2 8 9 11 20 24 25 28 33 41 35 32 46 57 64 61 64 65 63 78 74 62 53 52 56 58 57 47 42 27 34 27 21 24 25 23 19
Wind_Direction_500mb
241 240 243 246 250 252 253 255 259 264 266 262 273 272 264 267 264 266 262 257 246 225 222 223 223 223 227 237 244 221 215 211 208 216 217 218 223 225 220 217 224 222 216
243 244 247 246 249 251 255 256 258 265 274 274 272 268 270 270 268 266 264 251 254 250 237 236 223 220 223 233 238 226 212 213 209 213 213 213 221 225 218 213 219 224 216
245 247 246 246 247 251 256 253 256 263 267 275 275 270 270 276 267 258 259 260 255 261 237 234 215 218 226 228 239 223 211 213 210 212 214 219 217 220 213 217 219 220 206
241 239 238 235 240 254 259 259 260 262 272 273 271 272 268 266 258 258 248 252 243 241 237 227 220 224 221 233 233 221 210 208 211 212 215 210 214 219 215 213 215 207 204
234 233 216 222 242 258 263 260 266 270 273 272 270 270 262 257 255 249 249 249 240 232 231 225 227 227 235 231 224 218 212 204 212 208 218 212 212 215 215 211 207 200 197
234 225 211 229 242 256 263 266 266 274 278 277 275 264 255 254 248 244 245 248 246 232 222 213 210 210 236 220 210 208 211 205 206 208 213 208 212 218 209 209 203 193 182
234 211 225 234 242 263 283 276 274 277 281 277 274 261 248 249 245 238 241 245 242 227 224 210 210 222 226 218 210 208 208 207 206 204 210 209 215 208 207 203 197 185 162
221 229 238 231 245 271 279 281 281 278 276 270 261 257 259 249 242 235 239 239 238 224 218 214 221 223 221 225 216 212 208 208 204 202 207 207 212 203 208 200 180 179 158
221 219 230 234 262 273 277 287 284 277 274 265 255 237 203 224 235 239 241 239 230 223 218 221 215 215 222 229 221 216 210 209 204 204 206 205 201 203 206 182 184 172 169
207 223 237 251 272 266 280 288 273 267 259 250 236 224 220 213 199 232 233 229 222 214 211 214 208 220 217 232 222 221 214 209 205 205 204 206 199 200 198 193 173 173 178
217 225 235 250 260 273 281 268 265 263 255 241 239 230 223 228 240 258 292 216 208 206 209 210 212 218 209 226 220 217 210 207 204 207 199 206 202 199 194 187 175 180 181
226 230 238 256 270 274 264 262 260 259 251 242 235 230 228 230 234 233 236 229 202 205 207 211 211 216 223 223 223 224 210 202 203 206 200 201 199 195 189 181 181 179 178
218 229 253 267 268 248 256 254 267 261 249 241 236 235 234 230 230 231 226 225 200 200 207 218 219 217 213 220 217 210 199 201 205 202 200 203 199 188 181 174 179 180 163
230 249 264 247 231 246 249 246 251 263 251 242 236 230 227 220 220 214 217 222 192 187 202 214 216 220 225 221 201 201 198 198 204 196 198 187 191 174 192 175 177 173 161
247 249 208 215 227 244 247 237 234 246 242 247 242 239 231 220 214 214 221 223 219 187 197 208 214 217 215 208 201 198 197 197 202 197 199 188 184 173 176 173 168 166 163
192 185 190 201 229 268 270 243 240 240 225 229 234 243 228 218 220 218 216 223 204 211 201 212 207 204 201 194 197 201 199 194 178 182 175 174 176 165 161 167 164 164 148
159 154 151 162 245 276 286 250 237 232 217 220 232 236 222 212 214 214 216 206 204 214 218 187 184 190 198 188 190 187 184 181 182 184 186 191 174 161 163 176 173 154 153
162 152 137 44 329 300 292 249 240 235 230 238 265 239 224 216 214 216 216 204 206 201 201 174 157 167 176 176 169 172 173 181 172 171 183 174 148 162 167 166 151 158 158
160 152 74 338 323 312 295 263 253 244 245 237 240 231 214 213 210 201 179 180 196 206 209 181 167 179 173 174 164 163 165 162 166 172 165 148 162 156 147 151 156 174 191
151 157 342 321 338 334 288 294 289 266 271 225 211 211 204 199 197 195 199 207 206 195 176 162 160 163 172 161 166 161 150 160 146 148 148 147 152 157 160 165 179 168 171
176 191 221 357 3 355 340 338 10 87 90 161 195 196 194 183 185 191 195 182 177 164 163 159 157 154 157 158 164 156 146 143 147 152 152 147 152 162 170 161 163 168 178
169 168 191 11 10 14 15 45 68 66 81 123 137 163 186 199 196 185 174 163 161 158 159 157 157 158 156 161 162 150 145 148 145 160 160 154 154 154 160 163 166 179 190
171 176 282 15 21 26 36 67 73 77 102 126 129 133 143 157 182 171 155 159 162 174 171 174 167 167 160 166 154 150 151 159 160 162 164 154 161 168 169 175 180 182 192
171 196 251 24 27 26 44 66 90 94 96 109 123 119 120 134 159 150 156 166 167 171 172 172 172 170 168 156 155 152 157 160 155 157 169 162 165 171 179 186 187 193 211
181 211 223 274 328 25 62 87 100 104 104 100 115 106 112 125 147 145 150 153 154 157 168 177 176 173 163 158 162 157 160 164 159 165 169 177 175 177 184 194 201 212 228
208 213 222 224 207 187 92 120 121 106 111 112 120 119 123 129 131 126 140 148 152 156 166 162 158 155 157 161 162 167 163 166 164 166 174 181 188 181 195 209 216 226 240
Wind_Speed_850mb
77 66 56 48 42 38 39 32 30 29 31 29 29 26 27 27 26 25 21 20 19 30 35 38 37 38 32 30 27 27 37 39 46 49 43 40 34 30 33 37 35 36 35
76 65 59 53 45 43 39 34 33 33 33 35 35 31 29 33 36 35 32 30 26 29 37 33 39 37 34 29 27 28 38 42 43 43 41 37 35 29 30 33 33 34 29
68 63 62 52 45 41 40 38 37 37 38 39 42 38 35 36 39 36 32 34 33 30 31 33 32 36 35 28 28 30 39 43 39 41 36 40 37 28 29 30 31 31 28
46 56 53 47 39 36 41 42 41 39 41 43 46 45 45 41 42 40 35 28 28 28 27 31 33 32 31 32 30 31 39 45 47 43 35 35 34 30 30 31 31 31 30
45 53 47 41 33 35 39 41 39 41 44 46 50 48 47 47 44 42 37 32 30 31 29 23 29 27 28 33 35 32 38 42 46 44 35 36 37 33 32 30 32 35 38
44 48 34 34 36 33 34 36 40 41 43 43 44 44 38 44 42 42 38 32 29 32 34 27 26 22 13 25 33 33 37 40 43 46 42 37 36 39 33 31 34 42 47
38 33 28 38 36 29 27 31 37 43 46 40 39 40 36 41 41 40 36 33 29 35 37 36 27 21 18 19 30 32 35 38 42 48 45 43 36 34 34 36 41 48 48
30 34 30 33 31 30 33 35 39 45 45 37 34 36 28 35 39 43 40 33 30 33 39 41 37 27 20 19 27 33 35 37 41 50 47 43 40 39 36 42 47 33 34
20 22 24 26 28 36 35 37 40 39 37 31 30 27 11 14 16 36 42 37 35 35 38 32 36 36 27 18 23 31 36 38 40 46 47 42 40 36 37 53 43 36 36
21 23 23 28 33 37 36 38 30 29 27 27 25 31 27 6 12 7 23 37 35 33 34 32 33 32 34 26 26 28 34 37 38 43 49 45 43 41 49 43 39 34 30
27 31 32 33 32 34 36 29 25 22 21 24 29 28 36 35 28 17 8 18 37 37 37 35 33 30 31 28 28 21 34 36 37 42 48 43 48 46 52 37 40 39 38
32 30 33 33 35 30 22 19 18 18 20 23 26 30 33 34 35 35 27 10 29 35 32 30 30 31 33 29 35 27 33 38 39 44 51 45 53 52 52 50 47 45 39
32 32 32 32 24 18 16 13 9 10 13 14 19 24 28 32 28 28 33 14 28 30 29 30 31 30 33 31 31 27 34 38 37 46 50 47 50 55 56 54 51 46 39
24 25 22 15 15 16 15 10 10 11 12 12 15 17 21 24 31 24 29 32 25 31 35 33 36 34 34 32 32 31 38 39 37 45 52 47 55 65 45 57 52 42 35
16 16 12 11 10 10 10 13 18 18 13 16 17 17 20 23 30 32 31 26 39 32 31 29 24 24 25 32 32 36 35 41 39 50 48 72 70 52 58 54 47 35 32
13 13 10 8 7 8 11 13 19 12 12 14 13 15 20 23 28 30 28 24 33 40 33 36 28 26 25 31 34 37 36 36 38 59 49 56 54 56 60 51 39 30 34
16 15 9 4 2 6 12 12 16 15 12 13 12 11 15 21 26 27 28 29 37 37 30 30 24 17 24 35 36 33 42 44 56 46 43 53 69 67 55 44 38 32 30
18 14 6 4 6 13 15 14 16 17 18 16 12 19 17 18 21 25 31 33 36 35 29 27 31 25 36 30 39 45 51 53 50 41 46 63 47 49 50 42 38 32 25
16 8 3 6 13 13 7 6 15 22 25 27 22 15 17 19 21 22 20 25 32 34 30 34 35 35 45 58 54 55 65 67 50 60 53 56 51 46 41 40 33 28 24
10 3 2 7 9 7 4 9 12 14 17 25 20 13 16 18 20 27 26 29 37 36 39 45 46 59 53 51 50 68 80 64 68 63 62 59 56 47 41 35 26 22 21
12 7 2 6 11 8 9 9 6 5 6 8 14 12 18 22 16 17 18 29 41 50 56 55 60 71 73 72 65 76 78 81 72 65 60 48 42 38 41 37 30 22 15
12 7 1 5 11 12 9 8 9 11 9 13 14 14 15 18 22 19 28 42 48 56 61 59 63 66 76 75 82 93 93 85 79 59 55 52 41 38 33 26 19 14 12
16 11 2 3 9 10 10 8 15 13 14 17 13 12 10 7 15 29 38 33 33 41 52 56 61 74 88 86 94 90 79 71 71 64 55 50 42 31 26 22 20 19 17
16 13 4 1 5 8 9 9 14 18 21 19 13 12 14 19 21 28 26 31 43 51 55 53 58 68 71 90 82 80 75 68 58 58 47 46 39 32 26 23 21 19 15
19 13 5 1 2 6 7 9 12 18 22 21 20 21 27 31 25 28 42 51 60 63 52 52 60 62 74 83 71 69 67 63 64 55 46 30 35 31 26 23 21 20 16
20 15 10 5 4 2 2 8 9 11 20 24 25 28 33 41 35 32 46 57 64 61 64 65 63 78 74 62 53 52 56 58 57 47 42 27 34 27 21 24 25 23 19
Wind_Direction_850mb
241 240 243 246 250 252 253 255 259 264 266 262 273 272 264 267 264 266 262 257 246 225 222 223 223 223 227 237 244 221 215 211 208 216 217 218 223 225 220 217 224 222 216
243 244 247 246 249 251 255 256 258 265 274 274 272 268 270 270 268 266 264 251 254 250 237 236 223 220 223 233 238 226 212 213 209 213 213 213 221 225 218 213 219 224 216
245 247 246 246 247 251 256 253 256 263 267 275 275 270 270 276 267 258 259 260 255 261 237 234 215 218 226 228 239 223 211 213 210 212 214 219 217 220 213 217 219 220 206
241 239 238 235 240 254 259 259 260 262 272 273 271 272 268 266 258 258 248 252 243 241 237 227 220 224 221 233 233 221 210 208 211 212 215 210 214 219 215 213 215 207 204
234 233 216 222 242 258 263 260 266 270 273 272 270 270 262 257 255 249 249 249 240 232 231 225 227 227 235 231 224 218 212 204 212 208 218 212 212 215 215 211 207 200 197
234 225 211 229 242 256 263 266 266 274 278 277 275 264 255 254 248 244 245 248 246 232 222 213 210 210 236 220 210 208 211 205 206 208 213 208 212 218 209 209 203 193 182
234 211 225 234 242 263 283 276 274 277 281 277 274 261 248 249 245 238 241 245 242 227 224 210 210 222 226 218 210 208 208 207 206 204 210 209 215 208 207 203 197 185 162
221 229 238 231 245 271 279 281 281 278 276 270 261 257 259 249 242 235 239 239 238 224 218 214 221 223 221 225 216 212 208 208 204 202 207 207 212 203 208 200 180 179 158
221 219 230 234 262 273 277 287 284 277 274 265 255 237 203 224 235 239 241 239 230 223 218 221 215 215 222 229 221 216 210 209 204 204 206 205 201 203 206 182 184 172 169
207 223 237 251 272 266 280 288 273 267 259 250 236 224 220 213 199 232 233 229 222 214 211 214 208 220 217 232 222 221 214 209 205 205 204 206 199 200 198 193 173 173 178
217 225 235 250 260 273 281 268 265 263 255 241 239 230 223 228 240 258 292 216 208 206 209 210 212 218 209 226 220 217 210 207 204 207 199 206 202 199 194 187 175 180 181
226 230 238 256 270 274 264 262 260 259 251 242 235 230 228 230 234 233 236 229 202 205 207 211 211 216 223 223 223 224 210 202 203 206 200 201 199 195 189 181 181 179 178
218 229 253 267 268 248 256 254 267 261 249 241 236 235 234 230 230 231 226 225 200 200 207 218 219 217 213 220 217 210 199 201 205 202 200 203 199 188 181 174 179 180 163
230 249 264 247 231 246 249 246 251 263 251 242 236 230 227 220 220 214 217 222 192 187 202 214 216 220 225 221 201 201 198 198 204 196 198 187 191 174 192 175 177 173 161
247 249 208 215 227 244 247 237 234 246 242 247 242 239 231 220 214 214 221 223 219 187 197 208 214 217 215 208 201 198 197 197 202 197 199 188 184 173 176 173 168 166 163
192 185 190 201 229 268 270 243 240 240 225 229 234 243 228 218 220 218 216 223 204 211 201 212 207 204 201 194 197 201 199 194 178 182 175 174 176 165 161 167 164 164 148
159 154 151 162 245 276 286 250 237 232 217 220 232 236 222 212 214 214 216 206 204 214 218 187 184 190 198 188 190 187 184 181 182 184 186 191 174 161 163 176 173 154 153
162 152 137 44 329 300 292 249 240 235 230 238 265 239 224 216 214 216 216 204 206 201 201 174 157 167 176 176 169 172 173 181 172 171 183 174 148 162 167 166 151 158 158
160 152 74 338 323 312 295 263 253 244 245 237 240 231 214 213 210 201 179 180 196 206 209 181 167 179 173 174 164 163 165 162 166 172 165 148 162 156 147 151 156 174 191
151 157 342 321 338 334 288 294 289 266 271 225 211 211 204 199 197 195 199 207 206 195 176 162 160 163 172 161 166 161 150 160 146 148 148 147 152 157 160 165 179 168 171
176 191 221 357 3 355 340 338 10 87 90 161 195 196 194 183 185 191 195 182 177 164 163 159 157 154 157 158 164 156 146 143 147 152 152 147 152 162 170 161 163 168 178
169 168 191 11 10 14 15 45 68 66 81 123 137 163 186 199 196 185 174 163 161 158 159 157 157 158 156 161 162 150 145 148 145 160 160 154 154 154 160 163 166 179 190
171 176 282 15 21 26 36 67 73 77 102 126 129 133 143 157 182 171 155 159 162 174 171 174 167 167 160 166 154 150 151 159 160 162 164 154 161 168 169 175 180 182 192
171 196 251 24 27 26 44 66 90 94 96 109 123 119 120 134 159 150 156 166 167 171 172 172 172 170 168 156 155 152 157 160 155 157 169 162 165 171 179 186 187 193 211
181 211 223 274 328 25 62 87 100 104 104 100 115 106 112 125 147 145 150 153 154 157 168 177 176 173 163 158 162 157 160 164 159 165 169 177 175 177 184 194 201 212 228
208 213 222 224 207 187 92 120 121 106 111 112 120 119 123 129 131 126 140 148 152 156 166 162 158 155 157 161 162 167 163 166 164 166 174 181 188 181 195 209 216 226 240